Wind_Speed
25 27 28 27 26 24 23 22 22 21 21 20 20 20 19 19 19 19 18 17 17 16 15 14 12 9 8 7 7 9 11 11 12 11 11 10 9 8 8 7 7 6 6 5 5 5 5 4 4 3 3 3 4 5 6 7 8 8 7 7 7 6 5 5 4 5 6 8 8 7 5 4 3 3 4 5 4 4 4 5 7 9 11 14 17
23 25 27 27 26 25 25 24 23 23 22 21 21 21 20 20 20 20 19 18 18 17 16 15 13 10 9 9 8 9 11 11 11 11 10 9 8 7 7 6 5 5 4 4 3 3 4 4 3 3 3 3 3 4 6 8 10 10 9 9 8 7 6 5 4 5 6 7 7 6 5 3 2 3 2 2 2 3 4 6 8 10 13 16 20
21 24 26 27 28 27 26 25 24 23 22 21 21 21 22 22 21 21 20 20 19 18 17 16 14 11 10 10 9 10 10 11 11 10 9 8 7 7 6 5 4 4 3 2 2 2 2 3 3 3 3 4 4 4 6 8 10 11 11 10 10 9 8 7 6 5 6 7 7 6 5 3 1 1 0 1 2 3 4 6 9 12 15 18 20
18 22 25 27 28 28 27 26 25 24 22 22 21 22 23 23 23 22 22 21 20 19 18 17 15 13 12 11 11 11 11 11 11 10 9 8 7 6 5 4 3 2 2 2 2 2 2 3 3 4 4 5 5 5 6 7 10 12 13 12 11 11 10 9 7 6 6 8 8 7 6 4 3 2 2 1 2 3 5 8 10 13 15 16 17
15 19 23 26 28 28 27 25 24 23 22 22 22 23 23 23 23 23 23 22 21 20 19 18 17 15 14 14 13 13 13 13 12 11 10 8 7 5 5 4 3 2 2 3 3 3 3 3 4 5 6 6 6 7 7 7 9 11 14 14 13 12 12 11 9 8 7 8 8 8 7 6 5 5 4 3 3 4 7 9 10 11 12 13 15
13 16 20 23 26 26 26 25 23 22 23 23 23 24 24 24 24 23 23 23 22 22 20 19 19 18 17 16 15 15 15 14 14 12 10 9 8 6 5 4 3 3 4 4 5 5 5 5 5 6 7 8 8 8 8 8 8 10 13 15 15 14 13 12 11 10 9 9 10 10 9 7 7 7 6 5 5 5 6 8 9 10 11 12 14
13 14 16 19 22 24 25 24 23 23 23 24 24 25 24 24 24 24 24 24 23 22 21 21 20 20 19 18 17 17 16 16 16 14 12 10 9 8 6 5 4 4 5 5 6 7 7 7 7 8 9 9 9 9 9 9 9 10 12 15 16 16 15 14 13 12 11 10 11 11 10 9 9 9 8 7 7 6 5 6 8 10 12 12 14
13 14 14 15 17 20 22 23 23 23 24 24 25 25 25 24 24 25 25 24 23 22 22 22 22 21 20 19 18 18 17 17 17 16 14 13 11 10 8 7 6 6 6 7 8 8 9 9 9 9 10 11 11 11 10 10 11 11 11 14 17 17 16 15 15 14 13 12 12 12 12 11 10 11 11 10 10 9 7 8 10 12 13 14 16
16 15 14 14 15 17 19 20 22 22 23 23 23 24 24 25 25 25 25 24 23 23 23 24 23 23 22 20 19 18 18 18 18 18 17 16 14 12 10 8 7 7 7 8 9 10 11 11 10 10 11 12 12 12 12 11 12 12 11 13 16 17 17 17 17 16 14 14 13 14 14 14 13 13 13 12 11 10 9 10 11 13 14 16 18
19 17 16 16 16 15 16 16 18 20 21 22 22 23 23 24 25 25 25 25 24 23 23 24 24 23 23 21 20 18 18 18 19 19 20 19 17 15 12 10 8 8 8 8 9 11 12 12 12 11 12 13 13 14 13 12 12 13 12 13 15 17 18 18 18 17 16 15 15 16 16 16 15 14 14 13 13 12 12 12 13 14 15 17 19
22 21 19 19 17 15 14 14 14 16 19 20 22 22 23 24 24 25 25 26 25 24 24 24 24 24 24 22 21 19 19 19 20 20 21 21 20 17 14 12 10 9 9 9 10 11 12 12 12 12 12 13 14 15 14 14 14 14 14 14 15 16 18 19 19 18 17 17 17 17 17 17 17 16 15 15 15 15 15 15 15 16 17 18 19
25 23 22 21 19 17 15 14 13 14 15 18 20 22 23 23 23 24 25 26 26 25 24 24 24 25 24 23 22 20 20 21 21 20 21 22 22 20 17 14 12 11 11 11 11 12 12 12 12 12 13 13 14 15 15 15 15 15 15 15 15 16 18 19 19 19 18 18 18 18 18 18 18 18 18 18 18 18 17 17 17 17 19 20 21
30 26 24 22 20 19 17 15 14 13 14 16 18 20 22 22 23 23 25 26 27 26 24 24 24 25 24 23 22 22 21 22 22 21 21 22 24 23 20 17 15 13 12 12 12 13 13 13 12 13 13 14 14 15 15 16 16 16 16 16 16 18 19 19 20 20 19 19 20 20 19 19 20 20 21 21 21 20 19 19 19 19 20 22 22
33 28 24 22 20 20 19 17 15 15 15 15 16 18 20 22 23 24 25 26 27 27 26 25 25 25 25 24 23 23 22 22 22 23 22 23 24 24 22 19 17 16 14 14 14 15 15 14 14 13 13 14 14 15 15 16 17 17 17 17 17 19 19 20 21 21 20 20 21 21 21 21 21 22 23 24 23 22 21 21 21 21 22 23 23
31 25 21 20 20 19 19 18 17 16 15 15 15 16 19 21 23 24 25 25 26 28 28 27 26 26 26 25 24 23 23 23 23 23 23 23 23 24 23 21 19 18 17 16 16 17 17 16 15 15 14 14 15 15 16 17 17 18 18 18 19 19 20 21 21 21 21 22 22 22 23 23 23 24 25 26 25 24 23 23 23 23 24 24 24
29 25 21 19 19 19 19 19 18 17 17 15 15 16 17 20 23 24 25 25 25 27 29 28 27 27 26 26 25 24 23 23 23 23 24 24 23 24 24 23 22 21 20 18 18 18 18 17 17 17 15 15 16 16 16 17 17 18 19 19 20 20 21 22 22 22 23 23 22 23 24 25 24 25 26 27 27 26 25 25 25 25 25 24 24
27 26 23 19 19 19 19 19 20 19 18 16 15 16 17 19 22 24 24 24 24 25 27 29 29 28 27 26 25 25 24 24 24 24 24 25 24 23 24 25 24 23 22 20 20 20 19 19 18 18 17 16 16 16 16 16 17 19 19 20 20 21 21 22 23 23 24 23 23 24 25 25 25 25 27 28 28 28 27 26 27 27 26 26 25
26 26 23 20 20 20 21 21 21 21 19 17 16 17 17 19 21 23 24 24 24 25 26 28 30 30 29 27 26 25 25 25 25 25 25 25 24 23 24 25 25 24 24 23 22 21 21 20 19 19 18 18 17 16 16 16 17 19 20 20 21 21 22 22 23 24 24 24 24 25 26 26 26 25 27 29 29 29 28 27 28 28 27 26 27
27 26 24 21 21 22 23 23 23 22 20 19 18 18 18 19 21 22 24 24 24 25 26 27 28 29 29 29 28 27 26 26 25 25 25 25 24 23 24 25 25 25 26 25 24 23 23 22 20 20 20 19 18 17 16 16 17 18 19 20 20 21 22 23 23 24 25 25 25 26 27 27 26 26 27 29 30 29 29 29 29 28 27 27 27
29 28 26 25 24 24 24 25 25 24 22 21 20 19 20 20 21 22 23 24 25 25 25 25 27 28 29 29 29 28 27 26 26 26 26 25 25 24 24 24 26 26 27 27 27 25 25 24 22 21 21 20 19 18 17 16 17 18 18 19 20 22 23 23 23 24 25 26 27 27 27 27 27 26 28 29 29 28 28 29 29 28 27 27 27
31 31 29 28 27 25 25 25 26 26 25 24 23 22 21 21 21 22 23 24 25 25 24 25 25 26 27 28 29 29 28 28 27 27 26 26 26 25 24 25 26 28 29 29 29 27 26 26 25 24 22 21 20 19 18 17 17 17 18 19 21 23 24 24 24 25 26 27 27 28 28 27 27 27 28 29 28 27 28 28 29 28 28 28 28
32 32 30 30 28 26 25 25 27 28 28 27 26 25 23 23 23 23 24 24 25 25 25 25 25 26 27 27 28 28 29 28 28 28 27 27 27 26 26 26 28 29 30 30 30 29 29 28 27 26 24 22 21 20 19 19 19 18 19 20 21 22 24 25 26 26 27 28 28 28 28 27 27 29 30 30 29 28 28 28 28 28 29 29 29
33 33 32 31 29 28 27 27 28 28 29 28 28 27 26 25 24 24 25 25 25 26 26 25 26 26 26 27 26 27 27 28 27 27 27 27 28 28 27 28 30 30 30 30 31 31 31 30 28 27 25 24 22 21 22 21 21 20 21 21 21 23 25 27 28 29 29 29 29 28 28 29 29 31 31 31 30 29 28 28 28 29 29 29 30
35 35 35 33 30 29 28 29 30 30 30 30 30 30 29 27 26 26 26 26 26 26 26 26 26 26 27 27 26 26 26 26 26 26 27 27 28 28 28 29 30 30 30 31 32 32 31 30 29 28 26 25 24 24 24 23 22 22 22 22 22 24 26 28 30 31 31 30 30 30 30 30 31 31 32 31 30 29 29 28 29 29 30 30 31
37 37 36 34 31 30 29 30 31 31 31 31 31 31 31 30 29 27 27 27 27 27 27 26 26 26 27 27 26 26 25 25 25 26 27 27 28 28 28 29 29 30 30 31 32 32 31 29 28 28 27 27 27 26 25 25 24 24 24 24 25 26 28 29 31 31 31 31 31 31 31 31 32 31 31 30 28 28 28 28 28 28 29 30 31
39 38 36 34 31 30 30 31 31 32 33 32 32 33 33 32 30 29 28 27 27 27 27 27 26 26 27 28 27 27 27 26 25 26 27 28 27 28 28 29 29 30 30 31 32 32 31 30 29 29 29 28 28 27 27 26 25 25 25 26 27 28 29 30 30 31 31 31 31 30 30 31 31 31 29 28 26 26 27 27 27 28 29 31 31
39 38 36 34 32 31 30 30 31 32 33 34 34 34 35 34 32 30 27 26 25 26 27 27 27 26 27 28 29 29 28 26 26 27 28 28 27 28 29 29 29 29 30 31 32 32 32 31 31 30 30 29 28 27 27 27 26 26 26 27 28 29 30 29 30 30 30 30 30 30 30 30 30 29 28 26 26 26 27 27 28 29 30 31 31
40 38 37 36 34 32 31 31 31 33 34 35 35 35 34 34 33 30 27 25 25 26 27 27 28 28 28 30 30 30 29 27 26 28 29 29 29 30 30 30 29 29 30 31 33 33 32 31 31 30 29 28 28 27 27 28 28 28 28 28 28 29 29 29 29 30 30 29 29 29 29 29 29 27 26 25 25 26 27 28 29 30 31 32 32
41 40 39 38 36 36 34 33 34 34 35 35 36 35 35 35 34 31 29 27 27 27 28 28 29 30 30 31 31 30 29 28 28 29 31 31 31 30 30 29 29 29 30 32 32 31 31 30 30 29 29 28 28 28 28 29 29 29 29 29 29 29 29 29 29 29 30 30 31 31 30 30 28 26 24 24 25 27 28 29 30 31 32 33 33
43 42 41 41 40 40 40 39 37 36 35 36 37 37 36 37 36 33 30 29 29 28 29 29 30 31 32 31 31 30 30 30 30 30 31 31 30 29 29 29 29 29 30 31 30 29 29 29 29 28 28 29 28 28 28 28 28 28 28 28 29 29 30 30 30 30 31 32 32 31 30 28 26 25 24 25 27 29 30 31 31 33 34 35 35
45 44 44 44 44 44 44 43 41 39 38 37 40 40 38 37 37 33 30 30 31 30 30 31 32 33 32 31 31 31 31 31 31 30 30 30 30 29 29 28 28 29 29 29 28 28 27 27 27 27 27 27 26 26 26 25 25 25 26 26 26 27 27 28 27 27 29 31 31 29 28 28 27 26 27 29 30 30 31 32 33 34 36 37 37
47 46 46 46 46 45 44 44 44 44 44 44 43 42 40 38 37 33 30 31 31 31 31 32 32 33 32 32 32 31 31 31 30 30 30 30 30 30 29 28 28 28 28 27 26 26 26 25 25 26 26 25 24 24 24 24 24 24 25 25 26 27 28 29 30 29 30 31 29 27 28 30 31 30 30 31 31 32 33 35 35 36 38 39 40
48 47 47 48 48 46 46 46 46 48 51 51 47 43 40 40 37 33 31 31 32 32 33 33 33 33 33 32 31 31 30 31 30 30 30 30 30 30 29 28 27 27 27 26 25 25 25 25 24 25 24 24 23 24 24 24 24 25 26 28 30 32 35 37 36 33 32 32 32 31 31 33 35 36 35 33 32 33 36 37 38 39 40 41 41
48 48 48 49 49 47 46 47 47 48 51 54 50 44 41 40 38 35 32 32 33 33 33 33 33 33 33 31 31 31 31 31 30 30 30 30 30 29 28 28 27 26 26 26 26 25 24 24 23 23 23 23 23 24 24 26 27 28 30 32 33 35 39 41 39 36 35 35 35 35 34 34 36 38 40 37 34 35 38 40 40 41 42 42 42
48 48 49 49 48 46 45 46 47 49 51 53 51 47 44 42 39 36 34 33 34 35 35 34 34 33 32 31 31 32 32 32 31 31 30 30 29 29 29 28 27 27 27 27 26 25 25 24 23 23 23 23 24 26 27 28 29 32 34 36 37 39 40 39 38 38 37 37 36 35 36 36 36 36 38 37 36 37 39 41 42 42 42 42 43
48 49 49 48 45 44 44 44 44 47 50 52 51 50 48 45 42 38 36 36 36 36 35 35 35 34 33 33 33 33 33 33 33 32 32 31 30 30 29 29 28 29 29 29 28 28 27 26 25 25 25 26 28 28 29 30 32 34 38 40 41 42 40 35 35 36 36 37 39 40 39 38 36 35 36 37 37 39 41 42 42 42 41 41 41
49 49 48 46 44 44 44 44 44 46 50 53 52 52 51 49 45 41 39 38 38 36 35 35 35 34 33 34 34 34 34 35 35 34 33 33 32 31 30 30 30 31 32 32 32 31 29 28 27 28 29 30 31 31 32 33 34 38 41 43 44 45 42 40 40 41 42 43 44 43 38 34 32 33 36 38 39 41 42 42 42 41 40 40 41
51 50 48 45 44 45 45 44 44 45 49 53 55 54 52 50 47 44 42 40 38 36 36 35 35 34 34 34 35 35 35 35 35 35 34 34 33 32 32 32 32 33 34 34 35 35 33 31 31 32 32 33 34 34 35 36 38 41 45 46 46 44 42 42 44 46 48 49 46 41 37 34 32 32 35 38 40 41 41 41 41 40 40 41 42
53 52 49 45 45 47 46 45 45 46 47 51 56 55 53 52 50 47 44 41 38 36 36 36 34 33 33 33 33 34 35 35 35 36 36 35 34 34 34 34 34 35 35 34 35 37 37 36 35 35 34 35 36 37 37 39 41 43 47 50 50 47 44 44 47 48 49 48 45 41 40 38 35 34 35 37 38 39 40 40 41 41 41 42 43
53 52 50 47 47 47 46 45 47 47 47 49 54 57 56 54 53 51 46 41 38 37 36 33 31 31 30 31 32 33 34 34 34 35 35 34 34 34 34 34 34 35 35 35 36 37 38 37 37 37 38 38 39 39 40 41 43 45 47 50 52 52 50 49 49 48 47 46 45 43 42 39 36 36 37 38 38 39 40 42 43 43 43 44 45
54 53 51 49 47 46 46 46 47 48 48 49 52 57 58 56 53 52 47 41 37 36 34 31 30 31 32 33 33 33 32 32 32 32 32 32 33 34 34 34 34 35 36 37 37 38 39 40 40 41 41 41 42 42 44 45 46 48 49 50 52 54 54 53 51 48 47 47 46 44 42 40 38 38 40 40 40 41 43 44 45 45 46 46 47
54 53 52 50 48 46 45 45 45 47 49 51 52 55 59 58 53 50 46 41 37 35 33 32 32 33 34 34 33 32 32 31 31 31 32 33 33 34 34 34 35 36 37 38 39 40 41 42 43 43 44 44 46 47 48 49 49 48 48 49 50 52 53 53 52 50 49 48 47 45 43 41 39 39 40 41 42 44 46 46 47 47 48 48 49
52 51 50 48 48 47 46 45 46 48 51 54 55 57 60 58 53 49 47 42 38 36 35 34 34 34 33 33 32 32 33 33 32 33 34 35 35 36 37 37 38 39 40 41 42 43 43 43 44 45 47 48 49 50 51 50 49 48 47 48 49 50 50 51 52 51 50 48 48 46 44 43 42 42 42 43 45 47 47 48 48 48 49 51 52
48 50 48 47 46 45 44 44 46 47 49 51 52 55 57 55 51 50 49 42 36 35 34 34 34 33 32 32 33 33 33 34 34 34 36 36 37 38 39 40 41 42 43 45 46 46 46 46 46 48 49 51 52 53 53 52 51 50 50 49 49 49 50 51 52 51 50 48 47 47 46 45 45 45 45 46 48 49 49 49 50 50 51 53 55
43 45 47 46 44 42 41 42 42 42 43 45 46 47 48 47 46 46 45 39 34 33 33 33 33 34 34 33 33 34 34 34 35 36 37 38 39 40 41 42 43 43 45 47 48 48 48 48 49 50 52 53 54 55 55 54 52 50 50 49 48 48 49 50 50 49 48 47 46 45 45 46 47 48 49 50 51 51 52 52 53 53 55 56 57
45 45 46 44 43 41 40 41 40 39 39 42 41 39 41 43 44 43 41 38 34 32 32 33 34 34 34 34 34 35 35 36 37 39 40 40 40 41 42 43 44 45 47 48 50 50 50 51 51 52 52 52 52 51 51 50 50 49 48 48 48 48 50 51 49 48 46 46 46 46 47 49 50 51 52 53 53 54 55 56 56 57 58 59 59
48 49 49 47 46 45 43 41 39 38 37 39 39 39 40 44 46 46 44 40 35 33 33 34 35 36 36 36 37 37 37 38 39 41 41 41 41 41 42 43 45 47 49 50 51 51 50 50 51 51 49 48 47 47 47 48 49 50 50 50 50 51 52 51 49 47 46 47 48 50 52 53 54 54 55 56 56 58 59 59 60 60 61 61 62
49 50 51 50 49 49 47 45 43 40 37 36 37 39 40 42 45 47 45 40 36 35 36 38 38 39 39 39 40 40 41 41 42 42 43 43 43 43 43 44 45 47 50 51 51 49 48 48 48 48 47 47 47 47 48 50 51 52 53 53 53 53 52 50 49 48 48 50 51 52 54 55 56 57 58 59 60 61 61 62 62 62 62 63 64
53 51 50 51 51 51 50 49 47 45 42 38 36 37 39 41 44 46 45 41 37 37 39 41 42 43 43 43 44 46 47 46 44 44 45 46 47 47 46 46 46 48 49 50 50 48 46 45 45 46 47 49 50 50 51 52 53 53 53 52 51 50 49 49 49 50 52 53 54 55 57 58 59 59 60 61 62 63 63 64 64 64 65 66 66
61 57 54 52 52 52 52 51 50 49 48 46 43 42 43 43 44 46 46 44 41 41 42 44 45 46 45 45 47 50 51 50 48 47 48 50 51 51 50 49 49 49 49 51 51 48 45 43 44 46 48 48 49 50 51 51 51 50 50 50 49 49 49 50 52 54 56 58 59 60 61 61 62 63 63 64 65 66 66 66 67 67 68 68 69
63 61 59 57 55 53 52 52 52 51 50 50 49 49 49 48 47 47 48 47 46 46 46 47 47 48 49 49 49 50 52 52 52 52 51 51 51 50 50 51 52 52 52 52 51 50 47 45 45 46 46 47 47 48 49 50 50 50 50 50 51 52 53 54 57 59 61 63 64 65 66 66 67 67 67 68 68 69 69 69 69 70 70 71 71
Wind_Direction
210 206 204 202 201 200 202 204 205 205 204 202 203 207 213 218 220 218 217 218 219 221 225 227 227 227 221 212 199 182 173 169 166 163 159 155 151 145 140 137 135 135 135 135 134 133 131 130 133 140 150 160 168 173 175 176 174 170 167 168 172 169 159 151 145 142 148 154 157 152 139 127 99 68 63 63 60 56 42 29 21 16 10 9 13
214 209 207 205 203 202 202 204 206 206 206 205 205 207 210 215 221 224 225 227 228 230 233 234 233 231 226 218 207 191 180 175 174 172 168 163 158 152 148 143 140 141 144 146 148 148 149 154 161 167 175 184 193 194 192 192 190 186 183 184 185 185 183 180 173 165 165 168 170 167 161 148 109 72 75 79 54 32 19 14 11 8 7 10 12
221 212 208 206 206 204 203 204 206 206 207 208 208 208 210 213 217 222 227 230 233 236 239 241 240 237 233 226 218 206 196 189 185 181 178 173 168 163 160 157 152 151 158 169 177 177 172 175 183 190 194 200 209 212 208 204 201 198 195 193 193 195 197 199 197 187 180 182 184 182 183 180 150 91 83 47 26 12 1 1 5 7 8 10 8
230 220 211 208 207 207 205 204 206 206 207 209 211 211 212 214 216 219 224 228 232 236 240 244 245 242 238 233 226 220 213 206 198 191 187 185 180 176 173 176 176 175 186 207 227 233 224 213 209 210 212 212 216 221 221 216 210 207 204 200 199 202 206 210 211 206 199 196 196 194 196 199 204 224 237 273 339 344 348 355 5 9 7 4 359
234 230 220 212 209 208 207 205 206 207 208 210 212 214 214 215 217 218 221 224 228 231 235 240 243 241 238 235 231 228 223 219 212 203 196 196 197 194 187 189 199 212 228 240 249 254 249 242 237 230 225 223 223 224 227 227 221 215 210 207 205 205 210 216 219 219 216 212 208 208 207 209 217 230 243 268 308 330 342 350 359 2 357 352 347
228 233 229 220 214 210 208 205 205 207 210 212 213 215 216 217 219 220 221 222 224 227 229 233 237 238 236 235 234 233 229 225 222 215 206 203 209 216 217 212 217 230 245 252 255 256 254 252 251 246 237 231 229 227 229 231 230 224 217 212 210 209 212 219 224 226 227 224 220 219 219 219 225 234 247 270 297 316 331 339 344 343 339 338 337
222 231 231 225 219 215 211 207 205 206 209 212 215 216 217 218 220 222 224 224 224 226 227 229 232 234 235 235 235 235 234 230 227 224 219 214 215 224 231 235 238 244 255 261 259 257 254 253 253 253 248 239 233 231 231 233 234 232 224 218 215 213 214 220 226 230 233 232 228 227 227 229 235 242 250 264 278 289 307 323 324 320 321 325 327
216 224 227 226 222 218 215 212 209 208 209 212 215 216 217 219 221 224 227 227 226 228 228 228 230 233 235 236 236 237 238 237 232 228 226 225 225 227 233 239 245 249 257 263 263 259 254 252 251 253 253 247 240 236 235 235 236 236 232 225 220 218 217 221 227 232 236 239 237 236 234 235 241 247 254 262 270 281 298 311 309 306 312 318 320
213 219 221 223 222 219 216 214 213 213 213 214 216 218 219 220 222 224 227 229 228 228 229 230 231 232 235 236 237 238 239 240 237 231 228 229 231 230 233 241 249 253 255 260 263 262 256 252 250 251 253 252 246 242 240 239 238 238 236 231 226 223 221 223 228 232 237 241 241 242 241 241 244 249 255 263 270 280 293 302 304 305 310 316 318
212 217 220 220 221 220 217 215 215 216 216 216 217 219 220 221 222 224 227 229 229 228 229 231 233 234 236 237 236 237 238 239 239 236 231 230 231 232 233 241 252 256 256 256 260 262 259 256 253 252 253 253 249 245 243 243 242 240 238 235 231 228 225 227 230 233 238 242 243 244 245 245 248 252 260 269 275 280 285 293 301 306 310 314 315
211 215 217 218 218 218 216 214 215 217 219 219 219 219 220 221 221 224 227 229 231 229 228 231 233 235 236 238 237 235 236 237 237 237 234 231 231 232 233 239 249 255 256 255 256 259 261 260 258 255 254 254 251 247 244 243 245 245 242 238 235 233 231 231 233 235 239 244 245 246 246 248 252 258 264 271 276 278 281 287 295 302 308 310 310
211 212 213 213 214 214 214 212 213 216 220 222 222 221 221 221 221 222 226 229 232 231 229 229 233 235 236 238 238 235 234 235 235 235 235 232 229 229 231 237 247 254 256 256 254 255 256 259 259 257 256 255 253 250 246 244 246 249 248 243 238 236 235 236 237 238 241 246 248 249 249 250 255 261 265 269 273 276 279 284 289 297 304 306 306
205 206 208 209 210 210 211 210 210 214 219 222 224 223 222 222 221 220 223 227 231 231 230 229 232 236 237 237 237 236 235 235 234 233 234 232 229 227 227 233 244 253 256 254 252 251 250 253 256 257 257 257 256 254 249 245 246 250 252 249 243 240 239 239 240 241 243 247 251 252 252 252 255 260 265 268 271 274 279 283 286 292 297 301 304
206 200 201 205 207 208 208 208 209 213 218 222 224 223 221 221 221 220 220 224 228 231 230 229 230 234 237 237 237 237 237 236 235 234 233 232 230 227 225 228 238 250 256 253 250 248 247 248 251 255 256 257 258 256 251 246 246 250 253 252 250 246 243 242 242 243 245 248 251 253 254 254 255 259 263 266 270 274 278 282 285 289 292 296 301
212 206 206 207 209 211 210 209 211 214 217 221 223 222 219 218 219 220 220 222 225 228 229 228 228 230 235 238 237 238 238 238 238 236 234 233 230 227 224 225 232 245 253 254 250 247 247 248 249 251 253 254 256 256 252 248 247 249 252 254 255 252 247 245 245 246 247 249 251 253 254 255 257 259 262 266 269 273 277 281 285 287 289 294 301
214 221 231 224 216 215 214 213 215 217 219 220 222 223 220 217 217 219 220 220 223 227 229 229 228 228 232 236 238 238 239 240 240 239 237 235 232 227 225 225 229 240 249 253 251 250 250 249 249 250 250 251 253 255 254 251 250 249 250 253 257 257 252 249 249 249 249 251 251 253 255 256 258 260 264 267 270 273 277 281 284 286 288 294 299
219 231 239 236 227 221 219 219 219 219 221 221 220 222 223 220 218 218 219 220 222 225 228 229 228 228 229 232 236 238 239 240 241 241 240 239 235 230 226 225 228 237 246 251 251 251 251 251 250 251 251 251 252 254 256 255 253 252 251 253 256 258 256 254 253 252 252 253 253 254 257 258 260 262 264 267 270 273 276 279 281 284 288 292 296
227 233 232 232 232 226 220 221 222 221 222 222 220 222 224 223 222 220 219 220 221 223 227 228 228 228 228 230 232 235 238 239 241 242 243 242 240 234 229 227 228 236 245 250 251 251 251 252 252 252 253 252 252 255 256 256 255 254 252 253 256 257 257 258 258 257 256 255 255 256 259 261 263 264 266 268 270 272 275 277 278 281 286 290 293
229 228 225 224 226 225 221 220 221 222 223 223 222 223 224 225 225 223 221 221 221 223 226 228 229 229 229 231 232 233 236 239 241 243 245 245 244 240 234 230 229 235 243 248 251 252 252 253 253 253 253 253 253 253 254 256 256 255 254 255 256 255 256 259 261 260 258 258 257 258 261 263 266 268 269 270 270 271 274 275 276 280 284 287 290
226 222 221 218 217 220 220 218 219 221 222 223 224 224 225 226 228 226 224 224 223 224 225 228 229 229 230 232 233 234 236 238 240 242 244 245 246 244 239 234 232 237 243 247 250 252 252 252 252 252 252 254 253 252 252 252 253 254 256 256 255 254 257 261 261 260 259 259 259 260 262 264 267 269 269 269 271 272 274 276 277 280 282 284 287
226 222 220 219 217 218 219 218 217 218 219 221 224 225 226 228 230 229 228 227 226 225 226 228 230 230 230 231 233 235 237 238 239 241 243 244 245 245 243 239 236 238 243 247 249 251 252 251 251 250 252 253 252 251 250 250 250 252 253 253 253 255 259 261 260 259 259 260 260 261 263 265 266 267 267 268 270 272 273 276 278 280 282 284 286
227 224 221 220 220 220 222 222 219 217 219 221 223 224 225 227 230 232 232 231 229 228 227 228 230 231 231 231 233 235 237 238 239 240 241 241 242 242 241 240 238 238 241 245 247 248 249 249 249 250 252 252 251 250 249 249 251 252 251 251 252 255 258 259 259 258 258 259 260 262 264 265 266 267 267 269 271 272 273 276 278 278 280 282 284
227 228 225 223 223 224 226 226 223 221 220 221 223 224 224 225 228 232 234 234 233 231 229 228 230 232 233 233 233 235 237 239 239 239 239 239 239 239 238 238 239 238 239 241 243 245 246 247 248 249 250 249 248 248 249 251 254 254 254 255 255 254 255 255 256 257 258 259 261 263 264 265 266 267 269 271 273 274 275 277 276 276 278 280 281
227 229 229 226 225 226 227 227 227 225 222 222 224 225 224 224 226 230 233 235 236 235 233 230 229 232 235 235 234 235 237 238 238 237 236 236 237 237 237 237 238 238 238 238 240 242 243 244 245 247 248 248 246 247 251 254 256 257 259 260 259 255 253 253 254 256 258 259 261 262 264 265 266 268 271 273 274 275 276 276 275 275 277 279 280
227 230 231 229 227 227 228 229 229 227 225 224 225 226 226 225 225 228 232 235 236 237 237 234 232 232 234 235 234 233 233 234 234 235 234 233 234 236 237 237 237 237 236 236 237 240 241 242 243 244 244 246 247 250 253 256 258 261 263 264 262 257 254 254 256 257 258 259 260 262 264 266 268 270 273 274 275 275 275 274 274 276 278 279 281
225 228 230 231 228 226 226 228 229 229 228 226 226 228 227 225 224 226 229 233 235 237 239 238 236 234 234 234 233 232 231 230 230 233 236 234 234 237 238 238 237 235 234 235 236 238 238 238 239 240 242 245 249 254 257 259 261 263 265 265 263 259 257 258 259 259 259 260 261 263 265 268 271 273 274 275 275 274 273 273 275 277 278 280 283
224 226 229 232 231 228 225 225 227 230 230 228 228 229 229 228 226 226 229 233 235 237 239 240 240 237 234 232 231 231 231 229 227 231 236 238 237 238 239 238 236 234 233 234 235 235 236 236 238 241 244 248 252 256 259 262 264 264 263 262 261 260 259 259 260 261 262 263 265 265 267 270 273 275 275 275 273 272 271 273 275 277 278 281 284
224 226 229 233 234 232 228 226 227 229 232 233 232 231 232 233 232 229 230 233 234 234 236 238 240 239 235 232 230 231 231 229 228 230 234 237 237 237 237 236 235 233 232 234 235 236 237 239 241 244 248 251 254 257 261 263 263 262 260 259 258 258 259 259 261 262 264 266 266 266 268 272 273 273 273 272 270 271 272 275 277 278 280 283 286
225 226 229 232 234 235 233 231 229 230 232 235 235 233 233 235 235 232 231 232 232 231 232 235 237 238 236 232 230 231 231 230 229 230 233 235 236 237 236 235 234 233 233 235 237 239 240 241 243 247 250 253 256 258 260 260 260 261 260 258 257 258 258 258 259 261 263 264 264 264 267 269 269 267 267 268 270 272 275 278 279 281 283 285 285
227 227 228 229 231 234 236 236 235 233 233 234 234 232 231 234 236 234 231 231 231 228 228 231 234 235 235 234 232 231 230 230 230 231 234 236 237 236 235 235 235 234 235 237 238 240 241 243 245 248 251 254 256 258 259 260 261 262 262 262 262 262 261 260 259 259 260 261 262 264 267 267 265 265 267 270 272 275 277 279 281 282 282 283 283
229 230 231 232 232 233 236 239 238 234 230 229 231 231 230 232 236 236 231 230 230 229 227 229 232 234 234 234 233 231 231 231 232 232 233 235 236 235 234 234 235 235 235 237 238 239 242 245 248 250 252 254 256 257 258 259 260 261 262 264 264 264 264 263 261 259 259 258 260 264 265 262 262 266 270 271 273 276 278 279 279 279 280 281 281
230 232 234 236 238 239 240 242 243 240 234 228 225 226 228 230 233 234 231 228 229 229 229 229 232 234 234 233 232 231 231 231 231 230 230 232 234 234 234 233 233 234 235 236 237 239 241 244 245 248 250 252 253 255 255 256 256 258 261 265 266 266 265 261 257 255 254 253 256 261 261 259 259 262 265 269 273 276 278 278 277 278 280 280 281
231 232 233 235 237 240 242 243 246 248 244 236 228 222 221 226 231 233 231 230 230 230 231 231 232 234 234 233 232 231 231 231 231 230 229 230 231 233 233 233 232 232 234 235 236 237 238 240 242 246 248 249 250 251 253 255 256 259 261 263 264 265 265 262 261 261 261 260 261 265 268 268 266 266 267 270 272 273 275 276 277 279 280 280 281
232 233 233 233 233 235 238 241 245 247 244 239 235 227 219 219 226 230 231 231 231 233 234 234 234 235 234 232 231 231 231 231 230 230 228 228 229 230 231 231 232 232 233 234 234 233 234 237 239 241 243 245 247 250 253 255 258 260 261 262 264 267 268 269 271 274 275 272 271 272 276 278 276 273 273 272 269 268 271 275 277 278 279 280 281
233 235 236 236 235 235 236 238 242 243 239 235 234 231 223 217 219 226 230 230 232 234 234 234 234 234 232 230 229 229 229 230 229 229 228 226 226 227 229 230 232 233 232 232 232 232 232 233 234 237 241 246 249 252 254 257 260 262 264 266 267 267 268 270 273 275 277 279 279 278 279 281 279 277 276 273 269 268 271 273 275 276 278 279 281
234 235 237 238 238 238 238 238 239 241 240 234 229 228 226 220 215 218 225 228 230 231 232 232 232 231 229 228 228 227 228 229 229 229 228 226 225 226 228 230 232 232 232 232 232 233 232 232 235 240 245 249 253 256 259 262 266 268 270 272 272 272 272 275 279 281 283 284 283 281 279 278 278 278 277 274 271 270 271 273 274 276 277 279 280
236 236 238 239 238 237 238 238 237 237 239 237 230 226 225 221 216 214 219 223 226 228 230 231 231 230 228 227 227 228 228 229 229 229 229 227 226 227 228 229 230 231 232 233 234 235 234 235 240 245 249 253 257 260 264 267 271 273 275 276 278 279 282 286 288 289 290 289 287 285 283 280 280 281 279 276 272 271 271 272 274 276 277 278 280
237 237 238 238 238 237 236 236 236 236 238 238 234 227 223 221 219 216 215 217 220 224 227 229 229 228 227 227 228 229 230 231 232 232 232 231 229 229 230 230 230 232 235 236 238 241 243 244 246 250 253 256 260 264 267 270 273 275 277 278 277 277 281 286 289 290 290 290 290 289 288 284 280 277 275 273 272 271 270 271 272 274 275 277 279
237 238 237 236 237 239 238 237 237 238 238 238 234 228 223 220 220 218 214 213 215 220 224 226 227 228 228 228 229 230 231 232 233 234 235 235 233 232 233 233 233 236 240 242 244 248 251 252 253 254 257 260 262 266 269 271 273 275 278 281 281 281 282 285 286 286 287 288 288 287 287 284 277 271 270 272 272 271 270 270 271 273 275 277 279
236 238 238 236 235 238 240 240 239 239 239 236 232 228 223 219 219 219 215 210 211 218 222 225 227 228 229 230 231 232 233 234 236 237 238 238 238 237 238 238 238 240 244 247 248 252 256 258 259 259 261 262 264 266 268 270 272 274 277 281 284 286 287 287 286 285 286 288 288 287 288 286 278 270 268 270 270 269 270 271 272 274 277 279 281
236 237 237 237 236 237 240 241 240 241 240 236 232 229 225 221 222 222 216 208 208 215 220 223 226 229 231 232 233 234 236 238 240 242 243 243 243 243 242 242 242 244 246 248 250 253 256 258 259 261 262 264 265 267 267 268 269 272 275 278 281 284 286 286 285 285 285 287 286 285 284 284 281 274 270 269 270 270 272 273 274 276 279 280 281
236 237 237 237 238 239 240 240 240 240 240 238 235 231 226 224 225 222 215 207 206 211 216 221 225 229 233 235 236 238 240 242 243 245 246 247 248 248 248 247 247 247 248 250 251 253 255 257 259 261 263 264 264 264 265 266 267 269 271 274 277 279 280 282 283 283 284 284 283 281 279 279 280 278 275 273 273 273 275 275 276 277 279 281 282
237 237 238 238 239 239 240 240 241 241 240 238 234 229 226 226 224 217 210 207 205 208 214 222 227 232 237 240 240 242 243 244 246 247 249 250 252 252 253 253 253 253 253 254 254 255 256 258 260 262 263 265 265 266 267 269 270 271 272 274 275 276 277 279 281 282 282 282 281 279 278 276 276 276 275 275 275 276 277 278 278 279 280 281 283
236 236 237 238 238 239 239 240 242 243 240 233 226 223 224 225 221 213 209 210 209 209 215 223 229 234 238 240 241 243 244 245 247 249 251 252 253 254 254 255 256 257 258 258 259 260 261 261 262 264 265 267 269 270 272 273 273 274 275 275 274 274 276 279 279 280 280 279 278 278 278 277 276 276 276 277 278 278 279 279 279 280 281 282 283
234 234 235 236 237 238 238 239 242 243 237 228 223 222 224 223 218 212 212 213 213 215 220 226 230 234 236 237 239 241 243 245 248 250 252 254 255 256 256 256 256 258 259 259 260 261 263 263 265 265 266 266 267 268 270 271 272 272 273 272 272 274 277 278 278 278 278 277 276 277 277 277 276 277 278 279 279 279 278 279 281 281 282 283 284
235 234 234 235 237 238 238 237 238 238 235 230 227 227 225 221 217 214 213 215 219 222 224 227 231 234 235 236 239 241 243 247 250 252 253 255 257 258 257 256 256 256 257 258 259 259 261 263 264 265 265 265 266 266 267 268 269 270 271 271 272 274 276 276 276 276 276 277 277 278 278 278 278 278 279 279 279 279 279 281 282 282 283 285 285
235 236 237 237 237 239 241 240 238 237 235 231 228 227 225 220 216 214 214 220 227 230 228 229 233 235 237 239 241 243 246 249 252 253 255 258 261 261 260 258 257 256 256 256 257 258 259 261 262 264 265 265 265 265 266 268 269 271 271 271 272 273 274 274 273 272 274 277 279 280 281 280 280 279 279 279 279 280 281 282 283 284 285 285 285
231 234 236 237 238 239 241 241 240 239 238 235 232 231 228 221 216 216 219 225 231 232 231 232 235 237 239 242 244 246 248 250 253 256 258 261 263 263 262 261 261 261 259 258 256 256 257 260 263 265 267 267 266 265 266 267 268 269 270 270 271 272 271 269 268 270 274 278 280 282 283 282 281 280 280 280 280 281 282 283 283 284 284 284 284
230 231 233 235 236 237 239 240 240 240 241 241 239 238 236 232 227 225 227 230 233 235 235 235 237 238 241 244 246 248 249 249 251 255 259 261 264 265 263 262 262 263 263 262 259 257 257 261 264 265 267 267 267 266 267 267 267 268 269 270 272 271 269 266 267 271 276 279 280 282 283 282 281 280 280 280 280 281 281 281 282 282 282 282 282
232 232 233 234 235 236 238 239 239 240 242 244 244 243 244 243 240 236 234 235 238 240 241 241 241 243 245 247 248 250 250 250 252 254 257 260 263 265 265 263 261 261 263 264 261 257 257 259 261 262 264 265 265 265 266 266 266 268 269 270 271 270 269 269 271 275 277 279 281 282 283 283 282 281 280 279 280 280 280 280 281 280 281 281 281
235 235 235 236 237 238 240 241 241 241 242 243 244 244 245 247 248 246 244 243 243 244 245 246 247 247 248 249 251 252 254 255 257 257 257 258 260 262 264 264 262 262 265 263 256 251 253 257 260 261 263 264 265 265 265 265 265 267 269 270 270 271 272 273 276 278 279 280 281 282 282 282 281 280 279 279 279 279 279 279 279 279 279 280 280
Height
5921 5923 5924 5925 5927 5930 5932 5935 5937 5939 5941 5944 5946 5948 5950 5953 5954 5956 5957 5959 5960 5961 5962 5963 5964 5964 5965 5965 5966 5967 5968 5969 5970 5971 5972 5973 5974 5974 5975 5975 5975 5975 5975 5976 5976 5976 5976 5976 5976 5976 5976 5976 5977 5977 5977 5977 5978 5979 5979 5980 5980 5981 5981 5981 5982 5982 5982 5982 5983 5982 5982 5982 5982 5981 5981 5981 5981 5981 5980 5980 5979 5978 5977 5975 5973
5920 5921 5922 5924 5925 5927 5930 5932 5935 5937 5940 5942 5944 5946 5949 5951 5953 5955 5957 5958 5959 5960 5961 5962 5963 5964 5965 5965 5966 5966 5967 5968 5970 5971 5972 5973 5974 5974 5975 5975 5975 5976 5976 5976 5976 5976 5976 5976 5976 5976 5976 5976 5976 5976 5976 5977 5977 5978 5978 5979 5980 5980 5981 5981 5981 5982 5982 5982 5982 5982 5982 5982 5982 5981 5981 5981 5981 5981 5980 5980 5979 5978 5976 5974 5973
5919 5920 5921 5922 5923 5925 5927 5930 5932 5935 5938 5941 5943 5945 5947 5949 5951 5953 5955 5957 5958 5960 5961 5962 5963 5964 5965 5965 5966 5966 5967 5968 5969 5970 5971 5972 5973 5974 5975 5975 5975 5976 5976 5976 5976 5976 5976 5976 5976 5975 5975 5975 5975 5975 5976 5976 5976 5977 5978 5978 5979 5979 5980 5980 5981 5981 5982 5982 5982 5982 5982 5982 5981 5981 5981 5981 5981 5980 5980 5979 5978 5977 5975 5974 5973
5918 5919 5920 5920 5921 5923 5925 5927 5930 5933 5936 5939 5941 5943 5945 5947 5949 5951 5953 5955 5957 5958 5959 5961 5962 5964 5964 5965 5965 5966 5966 5967 5968 5969 5970 5971 5972 5973 5974 5975 5975 5975 5976 5976 5976 5976 5975 5975 5975 5975 5975 5975 5975 5975 5975 5975 5975 5976 5977 5977 5978 5978 5979 5980 5980 5981 5981 5981 5981 5981 5981 5981 5981 5981 5981 5981 5980 5980 5979 5978 5977 5976 5975 5974 5973
5915 5918 5919 5919 5920 5921 5923 5925 5928 5931 5934 5936 5938 5940 5943 5945 5947 5949 5950 5952 5954 5956 5958 5959 5961 5962 5963 5964 5964 5965 5966 5966 5967 5968 5969 5970 5971 5972 5973 5974 5975 5975 5975 5975 5975 5975 5975 5975 5975 5975 5974 5974 5974 5974 5974 5974 5974 5975 5975 5976 5977 5977 5978 5978 5979 5980 5980 5980 5980 5981 5981 5981 5981 5981 5981 5980 5980 5979 5978 5977 5977 5976 5975 5974 5973
5913 5915 5918 5919 5919 5920 5921 5923 5926 5929 5931 5933 5936 5938 5940 5942 5945 5946 5948 5950 5952 5954 5956 5957 5959 5960 5961 5962 5963 5964 5964 5965 5966 5967 5968 5969 5970 5971 5972 5973 5974 5974 5974 5974 5974 5974 5974 5974 5974 5974 5974 5974 5973 5973 5973 5973 5973 5974 5974 5975 5975 5976 5977 5977 5978 5979 5979 5979 5980 5980 5980 5980 5980 5980 5980 5979 5979 5979 5978 5977 5976 5976 5975 5974 5972
5911 5914 5916 5917 5918 5919 5920 5921 5923 5925 5928 5930 5932 5935 5938 5940 5942 5944 5946 5948 5950 5952 5954 5955 5957 5958 5959 5961 5962 5962 5963 5964 5965 5966 5967 5968 5969 5970 5971 5972 5973 5973 5973 5974 5973 5973 5973 5973 5973 5973 5973 5973 5973 5973 5972 5972 5972 5972 5973 5973 5974 5975 5975 5976 5977 5977 5978 5978 5978 5979 5979 5979 5979 5979 5979 5978 5978 5978 5978 5977 5976 5975 5974 5973 5971
5910 5912 5914 5916 5916 5917 5918 5919 5920 5922 5924 5927 5929 5932 5935 5938 5940 5942 5944 5946 5948 5950 5951 5953 5954 5956 5957 5959 5960 5961 5962 5963 5964 5965 5966 5967 5968 5969 5970 5971 5971 5972 5972 5972 5972 5972 5972 5972 5972 5972 5972 5971 5972 5972 5971 5971 5971 5971 5972 5972 5973 5973 5974 5975 5975 5976 5976 5977 5977 5977 5977 5978 5978 5978 5977 5977 5977 5977 5976 5976 5975 5974 5973 5971 5969
5908 5910 5912 5913 5914 5915 5915 5916 5918 5920 5922 5924 5927 5930 5932 5935 5937 5939 5942 5944 5946 5948 5949 5950 5952 5953 5955 5956 5958 5959 5960 5961 5962 5964 5964 5965 5966 5967 5968 5969 5970 5970 5971 5971 5971 5971 5971 5971 5971 5971 5970 5970 5970 5970 5970 5970 5970 5970 5971 5971 5971 5972 5973 5973 5973 5974 5974 5975 5975 5975 5976 5976 5976 5976 5976 5976 5975 5975 5975 5974 5974 5972 5971 5970 5967
5906 5908 5910 5911 5912 5913 5913 5914 5915 5917 5919 5922 5924 5926 5929 5932 5934 5936 5939 5941 5943 5945 5946 5948 5949 5951 5952 5954 5955 5957 5958 5959 5960 5961 5962 5963 5964 5965 5966 5967 5968 5969 5969 5969 5970 5969 5969 5969 5969 5969 5969 5969 5969 5969 5969 5969 5969 5969 5970 5970 5970 5971 5971 5971 5972 5972 5973 5973 5973 5974 5974 5974 5974 5974 5974 5973 5973 5973 5973 5973 5972 5971 5970 5968 5966
5903 5905 5907 5908 5910 5911 5911 5912 5913 5914 5916 5919 5921 5923 5926 5928 5931 5933 5936 5938 5940 5942 5944 5945 5947 5948 5950 5951 5953 5954 5955 5956 5957 5958 5959 5961 5962 5963 5964 5965 5966 5967 5967 5967 5968 5968 5968 5968 5968 5968 5968 5967 5967 5967 5968 5968 5968 5968 5968 5968 5969 5969 5969 5969 5970 5970 5971 5971 5971 5972 5972 5972 5972 5972 5971 5971 5971 5971 5971 5971 5970 5969 5968 5966 5965
5899 5902 5903 5904 5907 5909 5909 5910 5911 5912 5914 5916 5918 5920 5922 5925 5928 5930 5932 5934 5936 5939 5941 5943 5944 5945 5947 5949 5950 5952 5953 5953 5954 5955 5956 5958 5960 5961 5962 5963 5964 5964 5965 5965 5966 5966 5966 5966 5966 5966 5966 5966 5966 5966 5966 5966 5966 5966 5967 5967 5967 5967 5967 5968 5968 5968 5969 5969 5969 5969 5970 5970 5969 5969 5969 5969 5969 5969 5969 5969 5968 5967 5966 5965 5963
5891 5895 5898 5901 5903 5905 5907 5907 5908 5910 5911 5913 5915 5917 5920 5922 5925 5927 5929 5931 5933 5935 5938 5940 5941 5942 5944 5946 5947 5948 5950 5950 5951 5952 5953 5955 5956 5958 5960 5961 5961 5962 5963 5963 5964 5964 5964 5964 5964 5964 5964 5964 5964 5964 5964 5965 5965 5965 5965 5965 5965 5965 5965 5966 5966 5966 5967 5967 5967 5967 5967 5967 5967 5967 5967 5967 5967 5967 5967 5966 5966 5965 5964 5963 5961
5890 5891 5894 5898 5900 5902 5904 5905 5906 5908 5909 5911 5912 5914 5917 5919 5921 5923 5925 5927 5929 5932 5934 5937 5938 5939 5941 5943 5944 5945 5946 5947 5948 5949 5950 5952 5953 5955 5957 5958 5959 5960 5960 5961 5961 5961 5962 5962 5962 5962 5962 5962 5962 5962 5962 5962 5963 5963 5963 5963 5963 5963 5963 5963 5964 5964 5965 5965 5965 5965 5965 5965 5965 5965 5964 5964 5964 5964 5964 5964 5963 5963 5962 5961 5960
5897 5895 5895 5896 5898 5900 5901 5903 5904 5905 5907 5908 5910 5912 5914 5915 5917 5919 5922 5924 5926 5928 5930 5933 5935 5937 5938 5939 5941 5942 5943 5944 5945 5946 5947 5948 5950 5952 5954 5956 5956 5957 5957 5958 5958 5959 5959 5960 5960 5960 5960 5960 5960 5960 5960 5960 5961 5961 5961 5961 5961 5961 5961 5961 5961 5962 5962 5962 5962 5963 5962 5962 5962 5962 5962 5961 5961 5961 5961 5961 5961 5960 5959 5959 5957
5896 5897 5896 5896 5896 5897 5898 5900 5902 5903 5905 5906 5908 5909 5911 5912 5914 5915 5918 5920 5922 5924 5926 5928 5931 5933 5935 5936 5938 5939 5940 5941 5942 5943 5944 5945 5947 5949 5951 5952 5954 5954 5954 5955 5955 5956 5956 5957 5957 5957 5957 5957 5957 5957 5958 5958 5958 5959 5959 5959 5959 5959 5959 5959 5959 5959 5959 5959 5960 5960 5960 5960 5960 5960 5959 5959 5958 5958 5958 5958 5958 5957 5956 5956 5955
5890 5893 5894 5894 5894 5894 5896 5897 5899 5901 5902 5904 5906 5907 5908 5909 5911 5912 5914 5917 5919 5920 5922 5924 5926 5929 5931 5933 5934 5936 5937 5938 5939 5940 5941 5942 5944 5946 5948 5949 5950 5951 5951 5952 5953 5953 5953 5954 5954 5954 5955 5955 5955 5955 5955 5956 5956 5956 5956 5957 5956 5956 5956 5956 5956 5956 5956 5957 5957 5957 5957 5957 5957 5957 5956 5956 5955 5955 5956 5955 5954 5953 5953 5952 5952
5886 5889 5890 5891 5891 5892 5893 5894 5896 5898 5900 5902 5903 5904 5905 5907 5908 5910 5911 5913 5915 5917 5918 5919 5922 5924 5927 5929 5930 5932 5933 5934 5936 5937 5938 5939 5941 5943 5944 5946 5947 5948 5948 5949 5949 5950 5950 5951 5951 5952 5952 5952 5952 5952 5953 5953 5953 5954 5954 5954 5954 5954 5954 5954 5954 5954 5954 5954 5954 5954 5954 5954 5954 5954 5954 5953 5952 5952 5953 5952 5951 5950 5950 5949 5948
5882 5885 5885 5886 5888 5889 5890 5891 5893 5895 5897 5899 5900 5901 5902 5903 5905 5906 5908 5910 5911 5913 5914 5916 5918 5920 5923 5925 5926 5928 5929 5931 5932 5933 5934 5935 5937 5939 5941 5942 5944 5944 5945 5945 5946 5947 5947 5948 5948 5949 5949 5949 5949 5950 5950 5950 5951 5951 5951 5951 5952 5952 5951 5951 5951 5951 5951 5951 5951 5951 5951 5951 5951 5951 5950 5949 5949 5949 5949 5948 5947 5947 5947 5946 5945
5878 5879 5880 5881 5883 5884 5886 5888 5890 5892 5894 5895 5897 5898 5899 5900 5902 5903 5905 5906 5908 5909 5911 5912 5914 5916 5918 5920 5922 5924 5926 5927 5929 5930 5931 5932 5933 5935 5937 5938 5940 5941 5941 5941 5942 5943 5944 5944 5945 5945 5945 5946 5946 5947 5947 5948 5948 5948 5948 5949 5949 5949 5948 5948 5948 5948 5948 5948 5948 5948 5948 5948 5948 5948 5947 5946 5946 5946 5945 5944 5944 5944 5943 5943 5942
5872 5873 5874 5876 5878 5880 5883 5885 5887 5889 5890 5892 5893 5894 5896 5897 5898 5900 5901 5903 5904 5906 5908 5909 5910 5912 5914 5916 5918 5920 5922 5923 5925 5926 5927 5928 5929 5931 5933 5934 5935 5936 5936 5937 5938 5939 5940 5941 5941 5941 5942 5942 5943 5944 5944 5945 5945 5945 5946 5946 5946 5945 5945 5945 5945 5945 5945 5945 5945 5945 5945 5945 5945 5944 5943 5942 5943 5943 5942 5941 5940 5940 5940 5939 5939
5866 5868 5870 5872 5874 5876 5879 5881 5883 5885 5887 5888 5890 5891 5893 5894 5895 5896 5898 5899 5901 5902 5904 5906 5907 5909 5910 5912 5914 5916 5917 5919 5921 5922 5923 5924 5925 5927 5929 5930 5930 5931 5932 5933 5934 5935 5936 5936 5937 5938 5938 5939 5940 5940 5941 5941 5942 5942 5942 5942 5942 5942 5942 5942 5942 5942 5941 5941 5941 5941 5941 5941 5941 5940 5939 5939 5939 5939 5938 5937 5937 5936 5936 5936 5935
5861 5863 5865 5868 5870 5872 5875 5877 5879 5881 5883 5885 5886 5888 5889 5890 5892 5893 5894 5896 5897 5899 5901 5903 5904 5905 5907 5908 5910 5911 5913 5914 5916 5917 5918 5920 5921 5922 5924 5925 5926 5927 5928 5929 5930 5930 5931 5932 5933 5934 5934 5935 5936 5937 5937 5938 5938 5939 5939 5939 5939 5939 5938 5938 5938 5937 5937 5937 5937 5938 5938 5937 5937 5936 5936 5936 5935 5935 5934 5933 5933 5932 5932 5932 5931
5856 5859 5861 5864 5866 5868 5870 5873 5875 5877 5879 5881 5882 5884 5886 5887 5888 5890 5891 5892 5894 5895 5897 5899 5901 5902 5903 5904 5906 5908 5909 5910 5911 5912 5914 5915 5916 5918 5919 5920 5921 5922 5924 5924 5925 5926 5927 5928 5929 5930 5930 5931 5932 5933 5933 5934 5935 5935 5935 5935 5935 5935 5935 5934 5934 5933 5933 5933 5934 5934 5934 5933 5933 5933 5933 5932 5932 5931 5930 5929 5929 5929 5928 5928 5927
5852 5855 5858 5860 5862 5864 5866 5868 5870 5873 5875 5877 5878 5880 5882 5883 5885 5886 5887 5888 5890 5892 5893 5895 5897 5898 5899 5900 5902 5904 5905 5906 5907 5908 5909 5910 5912 5913 5914 5916 5917 5918 5919 5920 5920 5921 5923 5924 5925 5926 5926 5926 5927 5929 5930 5930 5931 5931 5931 5931 5931 5931 5930 5930 5929 5929 5929 5930 5930 5930 5930 5929 5929 5929 5929 5929 5928 5927 5926 5925 5925 5925 5924 5924 5923
5847 5851 5854 5856 5858 5860 5862 5864 5866 5868 5870 5872 5874 5876 5878 5879 5880 5882 5883 5885 5887 5888 5890 5891 5893 5895 5896 5897 5898 5899 5901 5902 5903 5903 5904 5906 5907 5909 5910 5911 5912 5913 5914 5915 5916 5918 5919 5920 5920 5921 5922 5923 5924 5925 5926 5926 5927 5927 5927 5927 5926 5926 5926 5925 5925 5925 5926 5926 5926 5926 5926 5926 5926 5926 5926 5925 5925 5924 5922 5921 5921 5921 5920 5919 5919
5842 5846 5849 5851 5853 5855 5857 5860 5862 5863 5865 5867 5869 5871 5873 5874 5876 5878 5880 5882 5884 5885 5886 5888 5889 5891 5892 5893 5894 5895 5896 5898 5899 5900 5900 5902 5903 5904 5905 5906 5907 5909 5910 5911 5912 5913 5914 5915 5916 5917 5918 5919 5920 5921 5921 5922 5922 5923 5923 5922 5921 5921 5921 5921 5921 5921 5922 5922 5922 5922 5922 5922 5922 5922 5922 5922 5921 5920 5919 5918 5918 5918 5917 5916 5915
5837 5840 5843 5846 5848 5850 5853 5855 5857 5858 5860 5862 5864 5866 5868 5870 5873 5875 5877 5879 5880 5882 5883 5884 5885 5887 5888 5889 5890 5891 5893 5894 5896 5896 5896 5897 5898 5899 5900 5901 5903 5904 5906 5906 5907 5908 5910 5912 5913 5914 5915 5916 5917 5917 5917 5917 5917 5917 5917 5917 5916 5916 5916 5916 5917 5917 5918 5918 5918 5918 5918 5918 5918 5918 5918 5918 5917 5916 5915 5915 5914 5914 5913 5912 5911
5831 5834 5837 5840 5842 5844 5846 5848 5850 5853 5855 5857 5860 5862 5865 5866 5868 5871 5873 5874 5876 5877 5879 5880 5881 5882 5883 5885 5886 5888 5890 5891 5892 5892 5892 5892 5893 5894 5895 5897 5898 5900 5901 5902 5903 5905 5907 5908 5910 5911 5911 5912 5913 5913 5913 5913 5912 5912 5912 5911 5911 5911 5911 5912 5912 5913 5913 5913 5912 5912 5913 5913 5913 5913 5913 5913 5912 5912 5911 5911 5910 5909 5908 5907 5906
5824 5827 5830 5832 5834 5837 5839 5841 5844 5847 5850 5853 5855 5857 5859 5861 5863 5866 5868 5869 5871 5872 5874 5876 5877 5877 5878 5881 5883 5884 5886 5886 5887 5887 5887 5888 5889 5890 5891 5893 5894 5896 5897 5898 5900 5902 5903 5905 5906 5907 5907 5908 5908 5909 5909 5908 5908 5908 5907 5907 5907 5907 5907 5907 5908 5909 5909 5908 5907 5908 5909 5909 5909 5909 5909 5909 5908 5908 5907 5906 5905 5905 5904 5903 5902
5818 5821 5824 5826 5828 5830 5833 5835 5838 5841 5843 5846 5848 5851 5854 5856 5858 5861 5863 5865 5866 5868 5870 5871 5872 5873 5875 5877 5878 5880 5880 5881 5883 5884 5884 5884 5885 5886 5887 5888 5890 5891 5892 5894 5896 5898 5899 5901 5902 5903 5903 5904 5904 5905 5904 5904 5904 5904 5903 5903 5903 5902 5902 5902 5903 5904 5904 5903 5903 5905 5905 5905 5905 5905 5905 5905 5904 5904 5903 5902 5901 5900 5899 5898 5897
5812 5815 5819 5822 5824 5827 5830 5831 5833 5835 5837 5838 5839 5843 5848 5851 5853 5856 5859 5860 5861 5863 5865 5867 5868 5870 5871 5872 5873 5875 5876 5877 5879 5880 5880 5881 5881 5882 5883 5884 5886 5887 5888 5890 5893 5894 5896 5897 5898 5898 5899 5900 5900 5900 5900 5901 5901 5901 5900 5900 5898 5897 5896 5895 5896 5898 5898 5897 5898 5900 5900 5899 5899 5899 5900 5900 5900 5900 5899 5897 5895 5894 5893 5892 5891
5805 5808 5811 5815 5818 5822 5825 5827 5829 5832 5835 5836 5835 5835 5839 5845 5850 5852 5854 5856 5857 5858 5860 5863 5864 5865 5867 5868 5869 5871 5872 5873 5875 5876 5877 5877 5878 5878 5879 5881 5882 5883 5885 5887 5889 5890 5892 5893 5894 5894 5895 5896 5896 5896 5897 5897 5897 5897 5897 5894 5893 5891 5890 5889 5892 5895 5895 5895 5895 5896 5896 5896 5896 5895 5895 5895 5894 5894 5893 5892 5891 5890 5888 5887 5886
5799 5801 5803 5805 5809 5814 5818 5821 5823 5826 5829 5834 5837 5837 5835 5837 5843 5848 5849 5851 5853 5855 5856 5858 5860 5861 5863 5864 5866 5867 5868 5869 5871 5872 5873 5874 5874 5875 5876 5877 5878 5880 5882 5883 5885 5886 5888 5889 5890 5890 5891 5892 5892 5892 5893 5893 5893 5892 5891 5889 5888 5888 5888 5888 5891 5893 5893 5892 5892 5892 5892 5892 5892 5891 5890 5889 5888 5888 5887 5886 5885 5884 5883 5881 5881
5793 5795 5796 5798 5802 5807 5810 5813 5816 5819 5821 5826 5833 5838 5836 5832 5834 5840 5844 5846 5848 5850 5852 5854 5855 5857 5859 5860 5862 5863 5864 5865 5867 5868 5869 5870 5871 5872 5873 5874 5875 5877 5878 5879 5881 5882 5883 5885 5886 5886 5887 5888 5888 5888 5889 5889 5888 5887 5885 5883 5883 5883 5882 5884 5886 5887 5887 5887 5887 5886 5886 5886 5886 5885 5884 5883 5882 5882 5881 5880 5879 5879 5878 5876 5875
5788 5791 5793 5796 5800 5803 5805 5807 5810 5814 5817 5819 5824 5831 5833 5830 5828 5831 5836 5840 5842 5844 5847 5849 5851 5853 5854 5856 5857 5859 5860 5861 5862 5863 5865 5866 5867 5868 5869 5870 5872 5872 5873 5874 5876 5877 5878 5879 5881 5881 5882 5883 5883 5884 5884 5884 5884 5882 5879 5876 5875 5875 5876 5879 5881 5881 5882 5882 5880 5878 5878 5879 5879 5879 5877 5877 5876 5876 5875 5874 5873 5873 5872 5871 5870
5782 5785 5789 5793 5796 5798 5799 5802 5804 5807 5811 5815 5817 5820 5825 5828 5827 5825 5827 5832 5836 5839 5842 5844 5846 5848 5850 5851 5853 5854 5856 5857 5858 5859 5860 5862 5863 5864 5866 5867 5867 5867 5868 5869 5870 5871 5872 5874 5875 5875 5877 5878 5879 5880 5880 5880 5879 5877 5873 5871 5872 5872 5872 5874 5874 5874 5874 5874 5872 5870 5871 5872 5873 5872 5871 5870 5870 5869 5869 5868 5868 5868 5867 5866 5865
5776 5780 5783 5787 5790 5791 5793 5796 5799 5801 5805 5809 5812 5814 5819 5824 5827 5825 5821 5823 5829 5834 5837 5839 5841 5843 5845 5847 5848 5850 5851 5852 5854 5855 5856 5857 5859 5861 5862 5862 5863 5862 5862 5864 5866 5868 5870 5871 5871 5871 5872 5874 5875 5875 5876 5876 5875 5872 5868 5867 5869 5871 5872 5871 5870 5869 5868 5867 5866 5866 5867 5866 5865 5865 5864 5863 5863 5863 5863 5863 5863 5862 5862 5860 5859
5771 5774 5778 5781 5783 5785 5788 5791 5794 5796 5798 5801 5805 5809 5812 5816 5821 5822 5818 5818 5823 5829 5832 5834 5837 5839 5840 5842 5844 5845 5847 5848 5849 5850 5851 5853 5855 5856 5857 5858 5859 5859 5859 5860 5862 5865 5866 5867 5867 5867 5868 5870 5871 5872 5872 5871 5870 5868 5864 5861 5862 5865 5868 5868 5866 5864 5863 5861 5861 5861 5861 5860 5859 5858 5858 5857 5858 5858 5858 5857 5856 5856 5856 5855 5854
5765 5768 5772 5774 5776 5779 5782 5786 5788 5791 5793 5794 5798 5802 5805 5808 5813 5817 5816 5814 5818 5824 5828 5831 5833 5835 5836 5837 5839 5840 5842 5843 5844 5845 5847 5849 5851 5852 5853 5854 5855 5856 5856 5857 5858 5859 5860 5861 5862 5863 5864 5865 5866 5867 5867 5866 5865 5863 5861 5858 5856 5856 5858 5860 5859 5858 5857 5856 5855 5855 5854 5854 5854 5854 5853 5852 5852 5852 5852 5851 5850 5850 5849 5848 5847
5760 5763 5765 5768 5771 5773 5776 5779 5782 5785 5787 5789 5791 5796 5801 5802 5806 5812 5813 5811 5813 5819 5824 5826 5828 5829 5830 5832 5834 5836 5838 5839 5840 5842 5844 5846 5847 5848 5849 5850 5851 5851 5852 5852 5853 5854 5855 5855 5856 5858 5859 5860 5861 5862 5861 5860 5859 5858 5856 5855 5853 5851 5851 5851 5851 5851 5851 5851 5850 5850 5849 5849 5849 5848 5847 5846 5846 5846 5846 5845 5844 5844 5842 5841 5840
5755 5758 5760 5763 5767 5769 5771 5773 5776 5778 5781 5783 5786 5790 5793 5796 5800 5806 5809 5808 5808 5813 5818 5819 5821 5824 5825 5828 5830 5832 5833 5835 5836 5838 5840 5842 5843 5844 5844 5844 5845 5845 5846 5846 5847 5848 5849 5850 5851 5852 5853 5854 5855 5855 5854 5853 5852 5852 5851 5851 5849 5848 5846 5845 5844 5845 5845 5845 5845 5844 5844 5844 5844 5843 5842 5841 5841 5840 5840 5839 5838 5837 5835 5834 5833
5750 5753 5757 5760 5763 5764 5766 5767 5769 5770 5772 5775 5777 5780 5783 5787 5793 5800 5803 5802 5802 5806 5811 5814 5816 5819 5822 5824 5826 5828 5829 5830 5831 5833 5835 5837 5838 5838 5838 5838 5838 5839 5839 5840 5841 5842 5844 5845 5846 5847 5847 5847 5848 5848 5847 5847 5846 5846 5846 5845 5844 5843 5842 5840 5839 5839 5839 5839 5838 5838 5838 5839 5838 5837 5837 5836 5835 5834 5834 5832 5831 5830 5829 5827 5826
5745 5749 5752 5755 5757 5759 5760 5762 5763 5763 5764 5766 5768 5770 5774 5779 5786 5793 5798 5799 5799 5802 5805 5809 5812 5815 5817 5819 5820 5822 5823 5824 5826 5828 5829 5831 5832 5832 5832 5832 5832 5832 5833 5833 5834 5836 5838 5839 5840 5841 5841 5841 5841 5841 5840 5840 5840 5840 5839 5839 5839 5838 5836 5835 5834 5833 5833 5833 5832 5831 5831 5831 5831 5831 5830 5829 5828 5828 5827 5826 5824 5823 5821 5820 5819
5740 5744 5747 5750 5751 5754 5756 5757 5757 5758 5759 5761 5764 5767 5770 5775 5782 5790 5794 5796 5798 5799 5802 5804 5807 5809 5811 5813 5814 5815 5816 5818 5819 5821 5822 5823 5824 5825 5825 5825 5826 5826 5826 5827 5828 5830 5831 5832 5833 5833 5833 5834 5833 5833 5833 5833 5834 5833 5833 5833 5832 5832 5830 5829 5828 5828 5827 5827 5826 5825 5825 5825 5824 5824 5823 5822 5821 5820 5819 5818 5817 5815 5813 5812 5811
5735 5738 5741 5744 5746 5748 5750 5751 5751 5753 5755 5758 5761 5765 5769 5773 5780 5785 5788 5789 5791 5794 5797 5799 5801 5803 5805 5806 5807 5808 5810 5811 5812 5814 5815 5816 5817 5818 5818 5819 5819 5820 5820 5820 5821 5822 5823 5824 5825 5825 5825 5826 5826 5826 5827 5827 5826 5826 5826 5826 5825 5825 5824 5823 5822 5822 5821 5820 5820 5819 5819 5818 5818 5817 5815 5814 5813 5812 5811 5810 5808 5806 5804 5803 5802
5731 5733 5735 5738 5741 5743 5743 5744 5746 5748 5751 5754 5758 5762 5765 5769 5773 5777 5779 5781 5784 5787 5791 5793 5795 5797 5799 5800 5801 5802 5803 5804 5805 5807 5808 5809 5810 5811 5811 5811 5812 5812 5813 5813 5814 5814 5815 5816 5817 5818 5818 5819 5819 5819 5819 5819 5819 5818 5818 5818 5818 5817 5816 5816 5815 5815 5814 5814 5813 5812 5812 5811 5810 5809 5808 5806 5805 5803 5802 5800 5799 5797 5796 5795 5793
5727 5729 5731 5734 5736 5737 5738 5739 5742 5744 5748 5751 5755 5758 5761 5764 5766 5768 5771 5774 5777 5781 5784 5787 5790 5792 5794 5795 5795 5796 5797 5798 5799 5800 5802 5803 5803 5804 5804 5804 5804 5804 5805 5806 5806 5807 5808 5809 5809 5810 5810 5811 5811 5811 5812 5811 5811 5811 5811 5810 5810 5810 5809 5808 5808 5808 5807 5807 5806 5805 5805 5804 5802 5801 5799 5798 5797 5795 5793 5792 5791 5789 5788 5786 5785
5721 5724 5727 5729 5731 5733 5734 5736 5739 5742 5745 5748 5752 5755 5758 5760 5762 5763 5765 5767 5770 5773 5777 5780 5783 5785 5787 5788 5789 5789 5789 5791 5793 5794 5795 5795 5795 5796 5797 5798 5798 5798 5798 5799 5800 5801 5801 5802 5802 5803 5803 5803 5803 5804 5804 5804 5803 5803 5803 5802 5802 5802 5802 5801 5801 5801 5800 5799 5798 5798 5797 5796 5795 5793 5791 5790 5788 5787 5785 5784 5783 5781 5780 5778 5777
5715 5718 5721 5724 5727 5728 5730 5732 5735 5738 5741 5744 5748 5752 5754 5756 5757 5759 5760 5762 5764 5767 5770 5773 5776 5778 5780 5782 5782 5783 5783 5784 5786 5788 5788 5788 5787 5788 5789 5790 5791 5792 5792 5793 5793 5794 5795 5795 5796 5796 5796 5796 5796 5796 5796 5796 5796 5796 5795 5795 5795 5794 5794 5794 5794 5793 5791 5790 5790 5789 5789 5788 5786 5784 5783 5781 5780 5778 5777 5776 5774 5772 5771 5769 5768
5709 5712 5716 5719 5722 5725 5726 5728 5730 5734 5736 5739 5743 5746 5749 5751 5752 5754 5755 5757 5759 5762 5764 5767 5769 5772 5773 5775 5777 5778 5778 5778 5779 5780 5780 5780 5780 5780 5780 5781 5782 5783 5784 5785 5786 5787 5788 5789 5788 5788 5788 5788 5789 5789 5789 5788 5789 5788 5788 5788 5787 5787 5786 5786 5785 5784 5783 5782 5781 5781 5780 5779 5777 5775 5773 5773 5771 5770 5769 5767 5765 5763 5761 5760 5757